[[{"header":{"parameterUnit":"m.s-1","parameterCategory":1,"la1":30.2991,"la2":30.254,"lo1":-89.0895,"lo2":-89.0444,"dy":0.0017,"dx":0.0017,"nx":28,"ny":28,"refTime":"2024-09-03T21:00:00:Z","depth":0,"parameterNumber":2,"parameterNumberName":"U-component_of_WINDS"},"data":[0,0,0,0,0,0,0,0,0,0,0,0,0,0,0,0,0,0,0,0,0,0,0,0,0,0,0,0,0,0,0,0,0,0,0,0,0,0,0,0,0,0,0,0,0,0,0,0,0,0,0,0,0,0,0,0,0,0,-7.9698,-7.97,0,-7.9867,-7.9869,-7.9871,-7.9726,-7.972,-7.9714,-7.9708,-7.9882,-7.9891,-7.9902,0,0,0,0,0,0,0,0,0,0,0,0,0,-7.9251,-7.926,-7.9698,-7.97,-7.9702,-7.9867,-7.9869,-7.9871,-7.9727,-7.9719,-7.9712,-7.9705,-7.9878,-7.989,-7.9902,0,0,0,0,0,0,0,0,0,0,0,0,0,-7.9435,-7.9263,-7.9698,-7.965,-7.9647,-7.9866,-7.9869,-7.9872,-7.9728,-7.9719,-7.971,-7.9702,-7.9874,-7.9889,-7.9904,-8.0179,0,0,-7.9951,-7.9958,0,0,0,0,0,0,0,0,-7.9425,-7.9452,-7.9655,-7.9654,-7.9651,-7.9766,-7.9775,-7.9975,-7.9731,-7.9698,-7.9708,-7.9697,-7.985,-7.9867,-7.9919,-8.0187,-8.0194,-7.9952,-7.9962,-7.9968,-7.9973,0,0,0,0,0,0,0,-7.9413,-7.9444,-7.9765,-7.9658,-7.9656,-7.962,-7.9637,-7.9812,-7.9823,-7.97,-7.969,-7.9712,-7.9848,-7.9904,-7.9922,-8.0197,-7.9952,-7.9965,-7.9975,-7.9981,-8.0698,-8.0708,0,0,0,0,0,0,-7.9405,-7.9434,-7.9759,-7.977,-7.9514,-7.9636,-7.9654,-7.9738,-7.982,-7.9824,-7.9719,-7.9704,-7.9882,-7.9904,-7.9927,-8.0252,-7.9968,-7.9982,-7.9991,-8.0688,-8.07,-8.0711,0,0,0,0,0,0,-7.9396,-7.9435,-7.9753,-7.9599,-7.9637,-7.9653,-7.9749,-7.9746,-7.9802,-7.9835,-7.9836,-7.9775,-7.9876,-7.9906,-8.0117,-8.0256,-7.9989,-8.0003,-8.0677,-8.0692,-8.0706,-8.0906,0,0,0,0,0,0,-7.9383,-7.9433,-7.9537,-7.9603,-7.9646,-7.994,-7.9758,-7.9756,-7.9829,-7.9811,-7.9887,-7.9891,-7.9871,-8.0095,-8.0132,-8.0272,-8.0015,-8.0664,-8.0684,-8.0701,-8.0887,-8.0926,-8.0959,0,0,0,0,0,-7.9368,-7.9587,-7.9543,-7.9583,-7.9777,-7.9948,-7.9973,-7.9945,-7.9841,-7.9946,-7.9967,-7.9889,-8.0236,-8.0118,-8.0159,-8.0306,-8.0655,-8.0678,-8.07,-8.0871,-8.0918,-8.0958,0,0,0,0,0,0,-7.9537,-7.9595,-7.9546,-7.9793,-7.9867,-7.9923,-8.0054,-7.9997,-8.0101,-8.008,-8.0042,-8.006,-8.0283,-8.0316,-8.0183,-8.0575,-8.0429,-8.046,-8.0545,-8.059,-8.0626,-8.0611,-8.0028,0,0,0,0,0,-7.9603,-7.9737,-7.9781,-7.9995,-8.0034,-8.0039,-8.0113,-8.0085,-8.016,-8.019,-8.0226,-8.0302,-8.0428,-8.0511,-8.0629,-8.0892,-8.0906,-8.1014,-8.105,-8.1079,-8.1106,-8.1246,-8.1294,-8.0784,-8.0784,-8.0783,0,0,-7.974,-7.9789,-7.9876,-8.003,-8.0083,-8.0223,-8.0066,-8.0221,-8.0324,-8.0214,-8.0414,-8.0445,-8.0527,-8.0765,-8.0872,-8.0799,-8.125,-8.1108,-8.1131,-8.1141,-8.1274,-8.1322,-8.1365,-8.0799,-8.0796,-8.0794,0,0,-8.0061,-8.0113,-8.0295,-8.0353,-8.0436,-8.0438,-8.0483,-8.0549,-8.0564,-8.0765,-8.0685,-8.0808,-8.1027,-8.1088,-8.1147,-8.1494,-8.1426,-8.1534,-8.1721,-8.1858,-8.1898,-8.1933,-8.2054,-8.2099,-8.1561,-8.1562,-8.1562,0,-8.0221,-8.0428,-8.0396,-8.0557,-8.0626,-8.0535,-8.0719,-8.0776,-8.0895,-8.0945,-8.0863,-8.1134,-8.1183,-8.1433,-8.1518,-8.1571,-8.1619,-8.1523,-8.1895,-8.193,-8.1963,-8.2078,-8.2124,-8.1574,-8.1573,-8.1571,-8.157,0,-8.0619,-8.0765,-8.0903,-8.1018,-8.1104,-8.1276,-8.127,-8.1361,-8.1328,-8.1338,-8.1545,-8.1601,-8.1727,-8.1786,-8.1755,-8.2033,-8.1984,-8.19,-8.1751,-8.2024,-8.2131,-8.2175,-8.1592,-8.1587,-8.1584,-8.1581,0,0,-8.1048,-8.1145,-8.1196,-8.1247,-8.1334,-8.1445,-8.1614,-8.1738,-8.1815,-8.1902,-8.204,-8.2228,-8.215,-8.2218,-8.2194,-8.2315,-8.2583,-8.2215,-8.2216,-8.2278,-8.289,-8.295,-8.3002,-8.254,-8.2548,-8.2555,-8.2882,0,-8.1369,-8.1661,-8.1638,-8.1913,-8.2046,-8.1962,-8.2109,-8.2178,-8.2194,-8.2309,-8.2326,-8.2458,-8.2347,-8.2387,-8.2504,-8.2526,-8.2705,-8.2502,-8.2667,-8.2673,-8.2645,-8.3059,-8.3123,-8.3429,-8.2924,-8.2931,-8.2937,0,-8.1783,-8.1882,-8.2171,-8.2237,-8.2292,-8.2424,-8.2535,-8.2648,-8.2725,-8.2728,-8.2805,-8.276,-8.293,-8.2781,-8.3013,-8.2876,-8.2943,-8.2965,-8.2976,-8.2987,-8.2819,-8.3078,-8.3526,-8.357,-8.3003,-8.2998,-8.2993,0,-8.2062,-8.2269,-8.2468,-8.2515,-8.2598,-8.2692,-8.2732,-8.28,-8.2876,-8.2975,-8.3023,-8.3141,-8.3205,-8.3297,-8.3285,-8.3178,-8.3522,-8.3372,-8.3527,-8.3528,-8.3599,-8.3594,-8.4061,-8.365,-8.3649,-8.3648,-8.3647,0,-8.2421,-8.26,-8.2594,-8.2716,-8.2914,-8.2888,-8.3085,-8.3113,-8.3175,-8.3301,-8.3237,-8.3357,-8.3336,-8.3456,-8.3449,-8.3641,-8.3671,-8.3677,-8.3672,-8.3681,-8.368,-8.3721,-8.3698,-8.366,-8.3658,-8.3655,-8.3653,0,-8.2764,-8.2768,-8.2978,-8.3041,-8.3061,-8.3204,-8.3257,-8.3372,-8.3384,-8.3544,-8.358,-8.3598,-8.3736,-8.3735,-8.3892,-8.3887,-8.4122,-8.4095,-8.4096,-8.4089,-8.4243,-8.4227,-8.4749,-8.4815,-8.4365,-8.4369,-8.4373,0,-8.2991,-8.3126,-8.3204,-8.3283,-8.3329,-8.3458,-8.3536,-8.3516,-8.3599,-8.3698,-8.3802,-8.3934,-8.4037,-8.4262,-8.4289,-8.4409,-8.4382,-8.4557,-8.44,-8.4403,-8.4381,-8.4371,-8.4383,-8.4587,-8.4592,-8.4596,-8.4599,0,-8.3392,-8.3387,-8.3501,-8.3617,-8.3711,-8.3801,-8.3884,-8.3953,-8.3942,-8.404,-8.4179,-8.4261,-8.4422,-8.4553,-8.4669,-8.4709,-8.4653,-8.4649,-8.4691,-8.4698,-8.4692,-8.4694,-8.4176,-8.4636,-8.4632,-8.463,-8.4628,-8.4626,-8.3681,-8.3797,-8.387,-8.3999,-8.4059,-8.4139,-8.4249,-8.4276,-8.4392,-8.4521,-8.4503,-8.4659,-8.4734,-8.4884,-8.4935,-8.5057,-8.4995,-8.5056,-8.5071,-8.5085,-8.5101,-8.4677,-8.5078,-8.5077,-8.5076,-8.5076,-8.5075,0,-8.4075,-8.4118,-8.4238,-8.4355,-8.4457,-8.4397,-8.4486,-8.4575,-8.4713,-8.4788,-8.4892,-8.5053,-8.5181,-8.5219,-8.5343,-8.5433,-8.541,-8.5465,-8.5456,-8.5466,-8.515,-8.51,-8.5482,-8.5482,-8.5482,-8.5482,-8.5481,-8.5481,-8.4292,-8.4484,-8.4489,-8.4711,-8.4753,-8.4905,-8.4961,-8.5034,-8.5093,-8.5276,-8.5381,-8.5406,-8.5466,-8.5594,-8.5708,-8.5716,-8.5763,-8.5829,-8.5826,-8.553,-8.5489,-8.5449,-8.5402,-8.584,-8.5841,-8.6131,-8.6134,-8.6136]},{"header":{"parameterUnit":"m.s-1","parameterCategory":1,"la1":30.2991,"la2":30.254,"lo1":-89.0895,"lo2":-89.0444,"dy":0.0017,"dx":0.0017,"nx":28,"ny":28,"refTime":"2024-09-03T21:00:00:Z","depth":0,"parameterNumber":3,"parameterNumberName":"V-component_of_WINDS"},"data":[0,0,0,0,0,0,0,0,0,0,0,0,0,0,0,0,0,0,0,0,0,0,0,0,0,0,0,0,0,0,0,0,0,0,0,0,0,0,0,0,0,0,0,0,0,0,0,0,0,0,0,0,0,0,0,0,0,0,0.2162,0.2162,0,0.2156,0.2156,0.2156,0.2149,0.2149,0.2149,0.2149,0.2139,0.2138,0.2138,0,0,0,0,0,0,0,0,0,0,0,0,0,0.2166,0.2166,0.2162,0.2162,0.2162,0.2156,0.2156,0.2156,0.2149,0.2149,0.2149,0.2149,0.2139,0.2138,0.2138,0,0,0,0,0,0,0,0,0,0,0,0,0,0.2163,0.2166,0.2162,0.2158,0.2158,0.2156,0.2156,0.2156,0.2149,0.2149,0.2149,0.2149,0.2139,0.2138,0.2138,0.2139,0,0,0.2137,0.2137,0,0,0,0,0,0,0,0,0.2163,0.2162,0.2159,0.2158,0.2158,0.2154,0.2154,0.215,0.2149,0.2152,0.2149,0.2149,0.2143,0.2143,0.2142,0.2139,0.2138,0.2137,0.2137,0.2137,0.2137,0,0,0,0,0,0,0,0.2163,0.2163,0.216,0.2159,0.2158,0.2156,0.2155,0.2153,0.2149,0.2152,0.2152,0.2151,0.2143,0.2142,0.2141,0.2138,0.2137,0.2137,0.2137,0.2137,0.2139,0.2139,0,0,0,0,0,0,0.2164,0.2163,0.216,0.216,0.216,0.2156,0.2155,0.2155,0.2149,0.2148,0.2151,0.2151,0.2143,0.2142,0.2141,0.2144,0.2137,0.2137,0.2136,0.2139,0.2139,0.2139,0,0,0,0,0,0,0.2164,0.2164,0.216,0.2161,0.2161,0.2156,0.2156,0.2155,0.2154,0.2148,0.2147,0.2151,0.2142,0.2141,0.2141,0.2144,0.2137,0.2136,0.2139,0.2139,0.2139,0.2149,0,0,0,0,0,0,0.2165,0.2164,0.2165,0.2161,0.2161,0.2161,0.2156,0.2155,0.2154,0.2153,0.2148,0.2147,0.2142,0.2141,0.2141,0.2143,0.2136,0.2138,0.2139,0.2139,0.2149,0.215,0.2151,0,0,0,0,0,0.2165,0.2166,0.2165,0.2164,0.2161,0.2161,0.216,0.2156,0.2154,0.2155,0.2152,0.2147,0.2144,0.2141,0.214,0.2143,0.2138,0.2139,0.2139,0.2148,0.215,0.2151,0,0,0,0,0,0,0.2167,0.2165,0.2164,0.2164,0.2163,0.216,0.216,0.2158,0.2156,0.2155,0.2149,0.2148,0.2149,0.2145,0.2143,0.2145,0.214,0.2141,0.2147,0.2149,0.215,0.2151,0.2136,0,0,0,0,0,0.2168,0.2169,0.2167,0.2167,0.2167,0.2164,0.2163,0.2161,0.2159,0.2158,0.2154,0.2151,0.215,0.2149,0.2147,0.2148,0.2148,0.215,0.2151,0.2152,0.2152,0.2156,0.2157,0.2141,0.2141,0.2141,0,0,0.2169,0.2168,0.2169,0.2168,0.2167,0.2168,0.2163,0.2163,0.2164,0.2157,0.2158,0.2155,0.2152,0.2153,0.2153,0.215,0.2157,0.2153,0.2154,0.2153,0.2156,0.2158,0.2159,0.2142,0.2141,0.2141,0,0,0.2172,0.2171,0.2173,0.2173,0.2173,0.2171,0.2172,0.2169,0.2168,0.2169,0.2165,0.2165,0.2162,0.2161,0.216,0.2167,0.2163,0.2167,0.2173,0.2176,0.2177,0.2178,0.2183,0.2184,0.2167,0.2167,0.2167,0,0.2173,0.2176,0.2174,0.2176,0.2176,0.2173,0.2176,0.2175,0.2173,0.2173,0.2171,0.217,0.2167,0.2169,0.2171,0.217,0.2171,0.2167,0.2177,0.2178,0.2179,0.2183,0.2185,0.2167,0.2167,0.2167,0.2167,0,0.2178,0.218,0.2182,0.2183,0.2184,0.2185,0.2184,0.2185,0.2183,0.2182,0.2184,0.2182,0.2181,0.2181,0.2178,0.2183,0.2182,0.2178,0.2173,0.2181,0.2185,0.2187,0.2168,0.2168,0.2168,0.2168,0,0,0.218,0.2184,0.2185,0.2187,0.2188,0.2189,0.2191,0.2193,0.2194,0.2194,0.2196,0.2196,0.2194,0.2193,0.219,0.2193,0.2201,0.2189,0.2189,0.2193,0.221,0.2214,0.2216,0.2199,0.2199,0.22,0.2211,0,0.2185,0.2191,0.2191,0.2196,0.2199,0.2198,0.22,0.2201,0.2201,0.2203,0.2202,0.2203,0.2199,0.2199,0.2201,0.22,0.2205,0.2199,0.2202,0.2202,0.2204,0.2217,0.222,0.2231,0.2212,0.2212,0.2213,0,0.2189,0.2193,0.2199,0.2203,0.2204,0.2207,0.221,0.2212,0.2213,0.2213,0.2214,0.2212,0.2215,0.221,0.2215,0.2211,0.2213,0.2213,0.2213,0.2213,0.2208,0.2219,0.2234,0.2236,0.2215,0.2214,0.2214,0,0.2193,0.2199,0.2204,0.2206,0.221,0.2212,0.2214,0.2215,0.2217,0.222,0.2221,0.2223,0.2224,0.2226,0.2224,0.2221,0.223,0.2225,0.2231,0.2231,0.2233,0.2233,0.2249,0.2232,0.2232,0.2232,0.2232,0,0.2198,0.2202,0.2207,0.221,0.2216,0.2216,0.2221,0.2223,0.2225,0.2229,0.2227,0.223,0.2228,0.2231,0.223,0.2236,0.2235,0.2236,0.2236,0.2237,0.2237,0.2238,0.2237,0.2232,0.2232,0.2232,0.2232,0,0.2202,0.2205,0.2212,0.2217,0.2218,0.2222,0.2226,0.2229,0.2231,0.2236,0.2237,0.2238,0.2242,0.2241,0.2245,0.2244,0.2252,0.225,0.2252,0.2252,0.2259,0.2259,0.2277,0.2281,0.226,0.226,0.226,0,0.2206,0.221,0.2217,0.222,0.2223,0.2228,0.2231,0.2233,0.2236,0.224,0.2244,0.2248,0.2252,0.2259,0.226,0.2263,0.2262,0.2269,0.2263,0.2265,0.2265,0.2265,0.2266,0.227,0.227,0.227,0.227,0,0.2212,0.2215,0.222,0.2227,0.2232,0.2237,0.2241,0.2244,0.2246,0.225,0.2256,0.2259,0.2265,0.227,0.2275,0.2276,0.2274,0.2273,0.2275,0.2276,0.2278,0.2279,0.2257,0.2272,0.2272,0.2272,0.2272,0.2272,0.2217,0.2222,0.2229,0.2236,0.224,0.2246,0.2251,0.2254,0.2259,0.2266,0.2266,0.2273,0.2277,0.2283,0.2285,0.229,0.2288,0.229,0.2291,0.2292,0.2294,0.2277,0.2291,0.2291,0.2291,0.2291,0.2291,0,0.2225,0.223,0.2237,0.2246,0.2252,0.2252,0.2258,0.2263,0.227,0.2275,0.228,0.2288,0.2294,0.2297,0.2302,0.2306,0.2306,0.2308,0.2308,0.2309,0.2294,0.2293,0.2309,0.2309,0.2309,0.2309,0.2309,0.2309,0.223,0.2239,0.2243,0.2255,0.226,0.2269,0.2272,0.2278,0.2282,0.2292,0.2298,0.2301,0.2305,0.2312,0.2318,0.2319,0.2322,0.2324,0.2325,0.2311,0.2309,0.2308,0.2307,0.2325,0.2325,0.2339,0.2339,0.2339]}]]